sat.trackr.live / text

‹ back to catalog

STARLINK-11160 [DTC]

NORAD 60125 · 2024-118N

PAYLOAD ACTIVE UNKNOWN

§ Identity

Operator
Country
US
Launch date
2024-06-24
Launch site
AFWTR
Launch vehicle
Mass (kg)
RCS (m²)

Purposes: comms

External: N2YO · Heavens-Above · Gunter

§ Orbital elements

Epoch: 2026-05-24T21:24:29.682144Z

Period
91.74 min
Inclination
53.1602°
Eccentricity
0.0000937
Mean motion
15.69707222 rev/d
Perigee alt
359.1 km
Apogee alt
360.4 km
Semi-major
6,737.9 km
B*
-1.3862e-5
RAAN
205.4657°
Arg perigee
111.5063°
Mean anomaly
248.6054°
Rev number
10,996

§ Raw data

STARLINK-11160 [DTC]1 60125U 24118N   26144.89201021 -.00002267  00000+0 -13862-4 0  99922 60125  53.1602 205.4657 0000937 111.5063 248.6054 15.69707222109963

JSON: /api/v1/satellites/60125 · /tle

For live sub-satellite position, see the globe view (requires WebGL).

§ Visibility from observer

Set your observer location to see the next 7 days of passes ≥ 10°. The values pass through the URL so the page stays shareable.

No JS? Fill the form by hand. The geolocation button needs JavaScript.